This demonstration page uses our WeatherBlox Daily Observations layout. Learn more.

Left ArrowRight Arrow

Hourly Observations for December 5, 2016

Temp ( °F °C ) Dew Point ( °F °C ) Humidity (%) Winds ( mph kmh ) Pressure ( in mb ) Visibility ( mi km ) Precip ( " mm )
12:19 am 00:19 Cloudy 36 2 32 undefined 87 87 W 9 15 30.03 1017 10 16 N/A
12:38 am 00:38 Cloudy 34 1 32 undefined 93 93 WNW 13 20 30.03 1017 10 16 N/A
12:59 am 00:59 Cloudy 34 1 32 undefined 93 93 WNW 12 19 30.06 1018 10 16 N/A
1:19 am 01:19 Cloudy 34 1 32 undefined 93 93 W 15 24 30.06 1018 10 16 N/A
1:38 am 01:38 Cloudy 34 1 32 undefined 93 93 W 15 24 30.06 1018 10 16 N/A
1:59 am 01:59 Cloudy 34 1 32 undefined 93 93 WNW 12 19 30.06 1018 10 16 N/A
2:19 am 02:19 Cloudy 34 1 32 undefined 93 93 WNW 10 17 30.06 1018 10 16 N/A
2:38 am 02:38 Cloudy 34 1 32 undefined 93 93 WNW 13 20 30.06 1018 10 16 N/A
2:59 am 02:59 Cloudy 34 1 32 undefined 93 93 WNW 10 17 30.09 1019 10 16 N/A
3:19 am 03:19 Cloudy 34 1 32 undefined 93 93 WNW 12 19 30.09 1019 10 16 N/A
3:38 am 03:38 Cloudy 34 1 32 undefined 93 93 WNW 10 17 30.09 1019 10 16 N/A
3:59 am 03:59 Cloudy 34 1 32 undefined 93 93 WNW 9 15 30.09 1019 10 16 N/A
4:19 am 04:19 Cloudy 34 1 32 undefined 93 93 W 10 17 30.09 1019 10 16 N/A
4:38 am 04:38 Cloudy 34 1 30 -1 87 87 W 8 13 30.12 1020 10 16 N/A
4:59 am 04:59 Cloudy 34 1 32 undefined 93 93 W 10 17 30.12 1020 10 16 N/A
5:19 am 05:19 Cloudy 34 1 30 -1 87 87 W 8 13 30.12 1020 10 16 N/A
5:38 am 05:38 Cloudy 34 1 30 -1 87 87 W 7 11 30.12 1020 10 16 N/A
5:59 am 05:59 Cloudy 34 1 30 -1 87 87 W 8 13 30.12 1020 10 16 N/A
6:19 am 06:19 Cloudy 34 1 30 -1 87 87 W 7 11 30.12 1020 10 16 N/A
6:38 am 06:38 Cloudy 34 1 30 -1 87 87 W 6 9 30.12 1020 10 16 N/A
6:59 am 06:59 Cloudy 34 1 30 -1 87 87 W 5 7 30.12 1020 10 16 N/A
7:19 am 07:19 Cloudy 34 1 30 -1 87 87 N N/A 30.12 1020 10 16 N/A
7:38 am 07:38 Cloudy 34 1 30 -1 87 87 N N/A 30.12 1020 10 16 N/A
7:59 am 07:59 Cloudy 34 1 30 -1 87 87 N N/A 30.12 1020 10 16 N/A
8:19 am 08:19 Cloudy 34 1 30 -1 87 87 N N/A 30.15 1021 10 16 N/A
8:38 am 08:38 Cloudy 34 1 30 -1 87 87 SW 5 7 30.15 1021 10 16 N/A
8:59 am 08:59 Cloudy 34 1 30 -1 87 87 S 3 6 30.15 1021 10 16 N/A
9:19 am 09:19 Cloudy 34 1 30 -1 87 87 SSW 5 7 30.15 1021 10 16 N/A
9:38 am 09:38 Cloudy 34 1 30 -1 87 87 SSW 6 9 30.15 1021 10 16 N/A
9:59 am 09:59 Cloudy 34 1 30 -1 87 87 S 7 11 30.15 1021 10 16 N/A
10:18 am 10:18 Cloudy 34 1 30 -1 87 87 S 6 9 30.18 1022 10 16 N/A
10:39 am 10:39 Cloudy 36 2 30 -1 81 81 SSW 5 7 30.18 1022 10 16 N/A
10:59 am 10:59 Cloudy 36 2 30 -1 81 81 S 7 11 30.18 1022 10 16 N/A
11:18 am 11:18 Cloudy 36 2 30 -1 81 81 S 7 11 30.18 1022 10 16 N/A
11:39 am 11:39 Cloudy 36 2 32 undefined 87 87 SSW 8 13 30.18 1022 10 16 N/A
11:59 am 11:59 Cloudy 37 3 32 undefined 81 81 SSW 8 13 30.18 1022 10 16 N/A
12:18 pm 12:18 Cloudy 37 3 32 undefined 81 81 SW 6 9 30.15 1021 10 16 N/A
12:39 pm 12:39 Mostly Cloudy 37 3 32 undefined 81 81 N N/A 30.15 1021 10 16 N/A
12:59 pm 12:59 Partly Cloudy 39 4 32 undefined 75 75 N N/A 30.09 1019 10 16 N/A
1:18 pm 13:18 Sunny 39 4 32 undefined 75 75 S 3 6 30.09 1019 10 16 N/A
1:39 pm 13:39 Partly Cloudy 41 5 34 1 76 76 SE 8 13 30.09 1019 10 16 N/A
1:59 pm 13:59 Partly Cloudy 41 5 34 1 76 76 S 7 11 30.09 1019 10 16 N/A
2:39 pm 14:39 Sunny 41 5 34 1 76 76 ESE 3 6 30.06 1018 10 16 N/A
2:59 pm 14:59 Sunny 41 5 34 1 76 76 ESE 6 9 30.06 1018 10 16 N/A
3:18 pm 15:18 Sunny 41 5 34 1 76 76 E 6 9 30.06 1018 10 16 N/A
3:39 pm 15:39 Sunny 41 5 34 1 76 76 ESE 5 7 30.06 1018 10 16 N/A
3:59 pm 15:59 Sunny 41 5 34 1 76 76 E 7 11 30.06 1018 10 16 N/A
4:18 pm 16:18 Sunny 39 4 34 1 81 81 E 7 11 30.03 1017 10 16 N/A
4:39 pm 16:39 Sunny 39 4 34 1 81 81 E 6 9 30.06 1018 10 16 N/A
4:59 pm 16:59 Sunny 37 3 34 1 87 87 ESE 6 9 30.03 1017 10 16 N/A
5:18 pm 17:18 Sunny 37 3 34 1 87 87 E 6 9 30.03 1017 10 16 N/A
5:39 pm 17:39 Clear 36 2 34 1 93 93 ESE 6 9 30.06 1018 10 16 N/A
5:58 pm 17:58 Clear 36 2 32 undefined 87 87 SE 7 11 30.06 1018 10 16 N/A
6:19 pm 18:19 Clear 36 2 32 undefined 87 87 SE 6 9 30.06 1018 10 16 N/A
6:39 pm 18:39 Clear 36 2 32 undefined 87 87 ESE 6 9 30.06 1018 10 16 N/A
6:58 pm 18:58 Clear 36 2 32 undefined 87 87 ESE 7 11 30.06 1018 10 16 N/A
7:19 pm 19:19 Clear 34 1 32 undefined 93 93 E 7 11 30.06 1018 10 16 N/A
7:39 pm 19:39 Clear 34 1 32 undefined 93 93 ESE 7 11 30.06 1018 10 16 N/A
7:58 pm 19:58 Clear 32 undefined 30 -1 93 93 E 6 9 30.03 1017 10 16 N/A
8:19 pm 20:19 Clear 32 undefined 30 -1 93 93 E 7 11 30.03 1017 7 11 N/A
8:38 pm 20:38 Clear 32 undefined 30 -1 93 93 E 6 9 30.03 1017 7 11 N/A
8:59 pm 20:59 Clear 34 1 32 undefined 93 93 E 7 11 30.03 1017 10 16 N/A
9:19 pm 21:19 Clear 34 1 32 undefined 93 93 E 8 13 30.00 1016 10 16 N/A
9:38 pm 21:38 Clear 34 1 30 -1 87 87 ESE 9 15 30.00 1016 10 16 N/A
9:59 pm 21:59 Clear 34 1 32 undefined 93 93 ESE 9 15 30.00 1016 10 16 N/A
10:19 pm 22:19 Clear 34 1 32 undefined 93 93 ESE 10 17 30.00 1016 10 16 N/A
10:38 pm 22:38 Clear 34 1 32 undefined 93 93 E 9 15 30.00 1016 10 16 N/A
10:59 pm 22:59 Clear 34 1 30 -1 87 87 E 9 15 30.00 1016 10 16 N/A
11:19 pm 23:19 Clear 32 undefined 30 -1 93 93 ESE 8 13 29.97 1015 10 16 N/A
11:38 pm 23:38 Clear 32 undefined 30 -1 93 93 E 9 15 29.97 1015 10 16 N/A
11:59 pm 23:59 Clear 32 undefined 30 -1 93 93 E 10 17 29.97 1015 10 16 N/A

Powered by AerisWeather